• In Latvia
  • List of Countries
  • For 7 days
  • Water Temperature
  • Satellite Maps
  • Weather Map
  • Weather Widgets
  • user-avatar
    Login

    Hourly Weather Kalgoorlie

    Today, 30 March, Thursday

    Time Temperature Precipitation Wind Pressure Humidity
    00:00 +13°C° 0 mm 6 mps 737 mmHg 60%
    01:00 +13°C° 0 mm 6 mps 737 mmHg 64%
    02:00 +11°C° 0 mm 6 mps 736 mmHg 67%
    03:00 +11°C° 0 mm 6 mps 737 mmHg 69%
    04:00 +10°C° 0 mm 6 mps 737 mmHg 72%
    05:00 +10°C° 0 mm 5 mps 737 mmHg 74%
    06:00 +10°C° 0 mm 6 mps 737 mmHg 71%
    07:00 +11°C° 0 mm 6 mps 737 mmHg 68%
    08:00 +12°C° 0 mm 7 mps 737 mmHg 65%
    09:00 +14°C° 0 mm 7 mps 737 mmHg 57%
    10:00 +16°C° 0 mm 6 mps 737 mmHg 48%
    11:00 +19°C° 0 mm 6 mps 736 mmHg 40%
    12:00 +20°C° 0 mm 6 mps 736 mmHg 36%
    13:00 +21°C° 0 mm 5 mps 735 mmHg 32%
    14:00 +22°C° 0 mm 4 mps 735 mmHg 28%
    15:00 +22°C° 0 mm 4 mps 735 mmHg 29%
    16:00 +22°C° 0 mm 3 mps 735 mmHg 29%
    17:00 +22°C° 0 mm 3 mps 734 mmHg 30%
    18:00 +21°C° 0 mm 3 mps 735 mmHg 33%
    19:00 +19°C° 0 mm 3 mps 735 mmHg 37%
    20:00 +18°C° 0 mm 3 mps 735 mmHg 40%
    21:00 +17°C° 0 mm 3 mps 735 mmHg 43%
    22:00 +17°C° 0 mm 3 mps 735 mmHg 45%
    23:00 +16°C° 0 mm 3 mps 735 mmHg 48%

    Tomorrow, 31 March, Friday

    Time Temperature Precipitation Wind Pressure Humidity
    00:00 +16°C° 0 mm 3 mps 735 mmHg 49%
    01:00 +14°C° 0 mm 3 mps 735 mmHg 51%
    02:00 +14°C° 0 mm 3 mps 734 mmHg 53%
    03:00 +14°C° 0 mm 3 mps 734 mmHg 54%
    04:00 +13°C° 0 mm 3 mps 734 mmHg 55%
    05:00 +13°C° 0 mm 3 mps 734 mmHg 56%
    06:00 +14°C° 0 mm 3 mps 735 mmHg 53%
    07:00 +16°C° 0 mm 3 mps 735 mmHg 50%
    08:00 +17°C° 0 mm 3 mps 736 mmHg 47%
    09:00 +19°C° 0 mm 3 mps 736 mmHg 42%
    10:00 +21°C° 0 mm 3 mps 736 mmHg 37%
    11:00 +22°C° 0 mm 3 mps 736 mmHg 31%
    12:00 +24°C° 0 mm 3 mps 735 mmHg 29%
    13:00 +25°C° 0 mm 3 mps 735 mmHg 27%
    14:00 +26°C° 0 mm 3 mps 734 mmHg 24%
    15:00 +25°C° 0 mm 3 mps 734 mmHg 25%
    16:00 +25°C° 0 mm 3 mps 734 mmHg 26%
    17:00 +25°C° 0 mm 3 mps 734 mmHg 26%
    18:00 +24°C° 0 mm 3 mps 735 mmHg 30%
    19:00 +21°C° 0 mm 3 mps 735 mmHg 33%
    20:00 +20°C° 0 mm 3 mps 736 mmHg 37%
    21:00 +19°C° 0 mm 4 mps 736 mmHg 39%
    22:00 +18°C° 0 mm 4 mps 736 mmHg 42%
    23:00 +18°C° 0 mm 4 mps 736 mmHg 45%

    Day after tomorrow, 1 April, Saturday

    Time Temperature Precipitation Wind Pressure Humidity
    00:00 +17°C° 0 mm 4 mps 736 mmHg 47%
    01:00 +17°C° 0 mm 4 mps 736 mmHg 49%
    02:00 +15°C° 0 mm 4 mps 736 mmHg 51%
    03:00 +15°C° 0 mm 4 mps 736 mmHg 55%
    04:00 +14°C° 0 mm 4 mps 736 mmHg 58%
    05:00 +13°C° 0 mm 4 mps 736 mmHg 61%
    06:00 +14°C° 0 mm 4 mps 737 mmHg 61%
    07:00 +15°C° 0 mm 5 mps 737 mmHg 61%
    08:00 +16°C° 0 mm 6 mps 737 mmHg 60%
    09:00 +17°C° 0 mm 6 mps 737 mmHg 53%
    10:00 +20°C° 0 mm 6 mps 737 mmHg 45%
    11:00 +22°C° 0 mm 6 mps 737 mmHg 37%
    12:00 +23°C° 0 mm 6 mps 737 mmHg 35%
    13:00 +24°C° 0 mm 6 mps 736 mmHg 32%
    14:00 +24°C° 0 mm 6 mps 736 mmHg 30%
    15:00 +24°C° 0 mm 6 mps 736 mmHg 31%
    16:00 +23°C° 0 mm 5 mps 736 mmHg 32%
    17:00 +23°C° 0 mm 5 mps 735 mmHg 34%
    18:00 +21°C° 0 mm 5 mps 736 mmHg 38%
    19:00 +20°C° 0 mm 5 mps 736 mmHg 41%
    20:00 +19°C° 0 mm 5 mps 737 mmHg 45%
    21:00 +17°C° 0 mm 5 mps 737 mmHg 49%
    22:00 +16°C° 0 mm 5 mps 737 mmHg 54%
    23:00 +16°C° 0 mm 6 mps 737 mmHg 58%

    2 April, Sunday

    Time Temperature Precipitation Wind Pressure Humidity
    00:00 +15°C° 0 mm 6 mps 737 mmHg 61%
    01:00 +15°C° 0 mm 5 mps 737 mmHg 65%
    02:00 +14°C° 0 mm 5 mps 737 mmHg 69%
    03:00 +14°C° 0 mm 5 mps 737 mmHg 71%
    04:00 +13°C° 0 mm 5 mps 737 mmHg 72%
    05:00 +13°C° 0 mm 5 mps 737 mmHg 74%
    06:00 +13°C° 0 mm 5 mps 737 mmHg 70%
    07:00 +14°C° 0 mm 6 mps 737 mmHg 67%
    08:00 +15°C° 0 mm 6 mps 738 mmHg 63%
    09:00 +17°C° 0 mm 6 mps 737 mmHg 54%
    10:00 +20°C° 0 mm 6 mps 737 mmHg 46%
    11:00 +22°C° 0 mm 6 mps 737 mmHg 38%
    12:00 +23°C° 0 mm 6 mps 737 mmHg 35%
    13:00 +25°C° 0 mm 5 mps 736 mmHg 32%
    14:00 +26°C° 0 mm 5 mps 735 mmHg 28%
    15:00 +25°C° 0 mm 5 mps 735 mmHg 29%
    16:00 +25°C° 0 mm 4 mps 735 mmHg 31%
    17:00 +25°C° 0 mm 4 mps 735 mmHg 32%
    18:00 +22°C° 0 mm 4 mps 736 mmHg 36%
    19:00 +21°C° 0 mm 4 mps 736 mmHg 40%
    20:00 +19°C° 0 mm 4 mps 736 mmHg 44%
    21:00 +19°C° 0 mm 4 mps 736 mmHg 47%
    22:00 +18°C° 0 mm 4 mps 736 mmHg 49%
    23:00 +18°C° 0 mm 4 mps 736 mmHg 51%

    3 April, Monday

    Time Temperature Precipitation Wind Pressure Humidity
    00:00 +17°C° 0 mm 4 mps 736 mmHg 53%
    01:00 +17°C° 0 mm 4 mps 736 mmHg 54%
    02:00 +16°C° 0 mm 3 mps 736 mmHg 56%
    03:00 +16°C° 0 mm 3 mps 736 mmHg 57%
    04:00 +16°C° 0 mm 3 mps 736 mmHg 59%
    05:00 +14°C° 0 mm 3 mps 736 mmHg 60%
    06:00 +15°C° 0 mm 4 mps 736 mmHg 57%
    07:00 +17°C° 0 mm 4 mps 736 mmHg 54%
    08:00 +17°C° 0 mm 5 mps 737 mmHg 51%
    09:00 +20°C° 0 mm 4 mps 737 mmHg 44%
    10:00 +23°C° 0 mm 4 mps 736 mmHg 37%
    11:00 +26°C° 0 mm 4 mps 736 mmHg 30%
    12:00 +26°C° 0 mm 3 mps 736 mmHg 28%
    13:00 +27°C° 0 mm 2 mps 735 mmHg 26%
    14:00 +28°C° 0 mm 1 mps 735 mmHg 24%
    15:00 +28°C° 0 mm 1 mps 735 mmHg 25%
    16:00 +27°C° 0 mm 1 mps 735 mmHg 25%
    17:00 +27°C° 0 mm 2 mps 735 mmHg 26%
    18:00 +26°C° 0 mm 2 mps 735 mmHg 29%
    19:00 +24°C° 0 mm 3 mps 735 mmHg 31%
    20:00 +22°C° 0 mm 3 mps 736 mmHg 34%
    21:00 +21°C° 0 mm 3 mps 735 mmHg 36%
    22:00 +20°C° 0 mm 4 mps 735 mmHg 39%
    23:00 +20°C° 0 mm 4 mps 735 mmHg 41%

    4 April, Tuesday

    Time Temperature Precipitation Wind Pressure Humidity
    00:00 +19°C° 0 mm 4 mps 735 mmHg 43%
    01:00 +19°C° 0 mm 4 mps 735 mmHg 45%
    02:00 +18°C° 0 mm 4 mps 735 mmHg 47%
    03:00 +18°C° 0 mm 4 mps 735 mmHg 48%
    04:00 +17°C° 0 mm 3 mps 735 mmHg 50%
    05:00 +17°C° 0 mm 3 mps 736 mmHg 51%
    06:00 +18°C° 0 mm 4 mps 736 mmHg 49%
    07:00 +19°C° 0 mm 4 mps 736 mmHg 46%
    08:00 +20°C° 0 mm 4 mps 737 mmHg 43%
    09:00 +22°C° 0 mm 4 mps 736 mmHg 38%
    10:00 +25°C° 0 mm 4 mps 736 mmHg 33%
    11:00 +27°C° 0 mm 4 mps 736 mmHg 27%
    12:00 +27°C° 0 mm 3 mps 735 mmHg 26%
    13:00 +28°C° 0 mm 3 mps 735 mmHg 24%
    14:00 +28°C° 0 mm 2 mps 734 mmHg 23%
    15:00 +28°C° 0 mm 3 mps 734 mmHg 24%
    16:00 +28°C° 0 mm 3 mps 734 mmHg 25%
    17:00 +27°C° 0 mm 3 mps 734 mmHg 26%
    18:00 +26°C° 0 mm 3 mps 734 mmHg 29%
    19:00 +24°C° 0 mm 3 mps 735 mmHg 32%
    20:00 +22°C° 0 mm 4 mps 735 mmHg 35%
    21:00 +21°C° 0 mm 4 mps 735 mmHg 37%
    22:00 +21°C° 0 mm 4 mps 735 mmHg 39%
    23:00 +20°C° 0 mm 4 mps 735 mmHg 41%
    Show more